Terminal Aerodrome Forecast
Issued by NWS Twin Cities, MN

Home | Current Version | Previous Version | Graphics & Text | Print | Product List | Glossary On
Versions: 1 2 3 4 5 6 7 8 9 10 11 12 13 14 15 16 17 18 19 20 21 22 23 24 25 26 27
760
FTUS43 KMPX 220929 AAC
TAFMSP
TAF AMD
KMSP 220929Z 2209/2312 18003KT P6SM SCT015 BKN050
      TEMPO 2210/2212 5SM BR BKN015
     FM221600 16005KT P6SM BKN035=

USA.gov is the U.S. government's official web portal to all federal, state and local government web resources and services.